Tracking 29932 objects as of 3-Dec-2024
HD Live streaming from Space Station
objects crossing your sky now

IRIDIUM 33 DEB

Track IRIDIUM 33 DEB now!
10-day predictions


NORAD ID: 34525
Int'l Code: 1997-051HS
Perigee: 759.4 km
Apogee: 763.0 km
Inclination: 86.4 °
Period: 99.9 minutes
Semi major axis: 7132 km
RCS: 0.0234 m2 (small)
Launch date: September 14, 1997
Source: United States (US)
Launch site: TYURATAM MISSILE AND SPACE COMPLEX (TTMTR)

Note: This is SATELLITE DEBRIS
Your satellite tracking list
Your tracking list is empty




NASA's NSSDC Master Catalog

Two Line Element Set (TLE):
1 34525U 97051HS  24338.39855008  .00003092  00000-0  94986-3 0  9992
2 34525  86.3762 206.3345 0002478 240.8560 292.9621 14.41341695827468
Source of the keplerian elements: AFSPC